Weather History for Naples, FL

Change the Weather History Date:

Tuesday, October 1, 2013

  Actual Average Record
Temperature  
Mean Temperature 82 °F 81 °F  
Max Temperature 90 °F 89 °F 95 °F (1988)
Min Temperature 73 °F 73 °F 68 °F (1993)
Degree Days  
Heating Degree Days 0 0  
Month to date heating degree days 0 0  
Since 1 July heating degree days 0 0  
Cooling Degree Days 17 16  
Month to date cooling degree days 17 16  
Year to date cooling degree days 3217 3193  
Growing Degree Days 31 (Base 50)    
Moisture  
Dew Point 73 °F    
Average Humidity 75    
Maximum Humidity 94    
Minimum Humidity 56    
Precipitation  
Precipitation 0.05 in 0.22 in 4.04 in (1979)
Month to date precipitation 0.05 0.22  
Year to date precipitation 47.03 44.43  
Snow  
Snow 0.00 in - - ()
Month to date snowfall 0.0  
Since 1 July snowfall 0.0  
Since 1 September snowfall 0.0  
Snow Depth 0.00 in    
Sea Level Pressure  
Sea Level Pressure 29.98 in    
Wind  
Wind Speed 7 mph (ENE)    
Max Wind Speed 15 mph    
Max Gust Speed 20 mph    
Visibility 10 miles    
Events Rain    
T = Trace of Precipitation, MM = Missing Value Source: NWS Daily Summary

Daily Weather History Graph

Daily Weather History Graph

Search for Another Location

Airport:

Trip Planner

Search our weather history database for the weather conditions in past years. The results will help you decide how hot, cold, wet, or windy it might be!

Date:

Astronomy

Oct. 01, 2013 Rise Set
Actual Time 7:19 AM EDT 7:13 PM EDT
Civil Twilight 6:56 AM EDT 7:36 PM EDT
Nautical Twilight 6:29 AM EDT 8:03 PM EDT
Astronomical Twilight 6:02 AM EDT 8:29 PM EDT
Moon 4:09 AM EDT (10/1) 5:02 PM EDT (10/1)
Length of Visible Light 12h 39m
Length of Day
11h 53m
Waning Crescent, 12% of the Moon is Illuminated
Oct 1
Waning Crescent
Oct 4
New
Oct 11
First Quarter
Oct 18
Full
Oct 26
Last Quarter

Hourly Weather History & Observations

Time (EDT) Temp. Heat Index Dew Point Humidity Pressure Visibility Wind Dir Wind Speed Gust Speed Precip Events Conditions
12:53 AM 75.9 °F - 69.1 °F 79% 29.99 in 10.0 mi ENE 3.5 mph - N/A   Mostly Cloudy
1:53 AM 75.9 °F - 70.0 °F 82% 29.97 in 10.0 mi East 6.9 mph - N/A   Clear
2:53 AM 73.9 °F - 71.1 °F 91% 29.96 in 10.0 mi ENE 4.6 mph - N/A   Clear
3:53 AM 73.0 °F - 72.0 °F 96% 29.96 in 10.0 mi ENE 5.8 mph - N/A   Clear
4:53 AM 73.0 °F - 72.0 °F 96% 29.96 in 10.0 mi NE 5.8 mph - N/A   Clear
5:53 AM 73.0 °F - 72.0 °F 96% 29.97 in 10.0 mi ENE 5.8 mph - N/A   Clear
6:53 AM 73.0 °F - 72.0 °F 96% 29.97 in 10.0 mi East 5.8 mph - N/A   Clear
7:53 AM 75.0 °F - 73.0 °F 94% 29.99 in 9.0 mi NE 5.8 mph - N/A   Clear
8:53 AM 79.0 °F - 73.9 °F 84% 30.00 in 10.0 mi ENE 6.9 mph - N/A   Clear
9:53 AM 82.9 °F 89.4 °F 73.9 °F 74% 30.01 in 10.0 mi East 8.1 mph - N/A   Clear
10:53 AM 84.9 °F 93.3 °F 75.0 °F 72% 30.01 in 10.0 mi East 9.2 mph - N/A   Partly Cloudy
11:53 AM 84.9 °F 93.3 °F 75.0 °F 72% 30.01 in 10.0 mi East 9.2 mph - N/A   Partly Cloudy
12:53 PM 86.0 °F 93.8 °F 73.9 °F 67% 30.00 in 10.0 mi NE 10.4 mph - N/A   Mostly Cloudy
1:53 PM 89.1 °F 98.0 °F 73.9 °F 61% 29.97 in 10.0 mi East 9.2 mph - N/A   Mostly Cloudy
2:53 PM 89.1 °F 96.0 °F 72.0 °F 57% 29.95 in 9.0 mi NE 10.4 mph 16.1 mph N/A   Mostly Cloudy
3:53 PM 81.0 °F 87.3 °F 75.9 °F 85% 29.95 in 8.0 mi WSW 9.2 mph - 0.02 in Rain Light Rain
4:53 PM 81.0 °F 87.3 °F 75.9 °F 85% 29.94 in 10.0 mi SSW 6.9 mph - 0.03 in   Overcast
5:53 PM 82.0 °F 89.4 °F 75.9 °F 82% 29.95 in 10.0 mi Calm Calm - N/A   Overcast
6:53 PM 82.0 °F 87.9 °F 73.9 °F 76% 29.97 in 10.0 mi Calm Calm - N/A   Mostly Cloudy
7:53 PM 81.0 °F 86.2 °F 73.9 °F 79% 29.98 in 10.0 mi SSE 3.5 mph - N/A   Mostly Cloudy
8:53 PM 80.1 °F 83.8 °F 72.0 °F 76% 29.99 in 10.0 mi East 8.1 mph - N/A   Clear
9:53 PM 79.0 °F - 71.1 °F 77% 30.01 in 10.0 mi East 8.1 mph - N/A   Clear
10:53 PM 78.1 °F - 71.1 °F 79% 30.02 in 10.0 mi East 9.2 mph - N/A   Clear
11:53 PM 77.0 °F - 71.1 °F 82% 30.01 in 10.0 mi ENE 8.1 mph - N/A   Clear